Шривпорт

США     32°28′04″N   93°46′47″W
темп.,
°C
ветер,
м/с
пор.,
м/с
влажн.,
%
обл.,
%
осадки,
мм/ч
давл.,
гПа
погр.,
м
15 мая, сб
сб1501:00+16вюв26811 0.0 1022164
04:00+15ююв26855 0.0 1022155
07:00+15юв258359 0.0 1022146
10:00+22ююв366794 0.0 1022699
13:00+26ю355166 0.0 10201850
16:00+28ююз3544100 0.0 10182082
19:00+25ююз2565100 0.0 1017216
22:00+21юв3779100 0.0 1018180
16 мая, вс
вс1601:00+20ююв4127379 0.0 1018418
04:00+18ююв211875 0.0 1019404
07:00+17юв299197 0.0 1019294
10:00+23ююв486899 0.0 1019799
13:00+26ю5858100 0.1 10181702
16:00+26ююз3755100 0.2 10161255
19:00+23ююв497147 0.3 1015846
22:00+21ю41282100 0.0 1015838
17 мая, пн
пн1701:00+19ю3129325 0.4 1016526
04:00+18ююв31397100 0.6 1015531
07:00+18юв21098100 2.5 1016410
10:00+21ююв51394100 1.8 1015589
13:00+22юв3896100 8.4 1015653
16:00+26ююв4780100 2.6 1012808
19:00+23ю5119394 10.3 1012547
22:00+22ю4139683 4.1 1013654
18 мая, вт
вт1801:00+21вюв41098100 7.2 1014618
04:00+19вюв51299100 5.9 1014798
07:00+18в41198100 9.8 1015735
10:00+19вюв41198100 0.8 1015450
13:00+23юв4109154 0.9 1014733
16:00+26ююв5983100 1.8 1012796
19:00+24юв51188100 3.0 1011711
22:00+23ююв5138945 0.0 1013936
19 мая, ср
ср1901:00+22ююв5139091 0.0 10131029
04:00+21юв41294100 0.3 10131084
07:00+18юв2398100 7.3 1016180
10:00+17ю51097100 5.0 1016283
13:00+19вюв2495100 7.8 1016112
16:00+20ююз0193100 0.6 1016256
19:00+19зсз2598100 2.7 1015229
22:00+18св1198100 2.1 101632